Location: Newark
(25.6108°S, 54.5803°W)
Time: 09:21:51
(UTC+00:00)

deb Explorer IX - Pass Details

Date: 05 November 2020
Orbit: 538 x 1104 km, 38.8° (Epoch: 23 November)

Event Time Altitude Azimuth Distance (km) Brightness Sun altitude
Rises 23:32:53 0° 241° (WSW) 3,147 ? -20.4°
Reaches altitude 10° 23:35:29 10° 243° (WSW) 2,131 ? -20.9°
Maximum altitude 23:40:20 70° 326° (NW) 653 ? -21.9°
Enters shadow 23:40:56 61° 16° (NNE) 692 ? -22.0°
Drops below altitude 10° 23:44:34 10° 49° (NE) 1,863 - -22.7°
Sets 23:46:43 0° 51° (NE) 2,716 - -23.1°
